Flag for China Weather past 2 weeks in Kashgar, Xinjiang, China

Now
86 °F

Clear.


Feels Like: 83 °F
Forecast: 71 / 97 °F
Wind: 10 mph from North

Location: Kashi Airport

Current Time: Jul 24, 2014 at 5:04:09 AM

Latest Report: Jul 24, 2014 at 4:00 AM


Visibility: 10 mi

Pressure: 29.74 "Hg

Humidity: 19%

Dew point: 39 °F

Location of KashgarLocation

Historic Weather in Kashgar — Graph

°F

Kashgar temperature yesterday

Maximum temperature yesterday: 97 °F (at 6:00 PM)
Minimum temperature yesterday: 77 °F (at 7:00 AM)
Average temperature yesterday: 89 °F

Past Weeks' High & Low Weather Summary

 TemperatureHumidityPressure
High97 °F (Jul 15, 5:00 PM)78% (Jul 18, 5:00 AM)30.01 "Hg (Jul 18, 5:00 AM)
Low63 °F (Jul 18, 8:00 AM)9% (Jul 16, 2:00 PM)29.59 "Hg (Jul 15, 7:00 PM)
Average81 °F29%29.86 "Hg
* Reported Jul 9 5:00 AM — Jul 24 4:00 AM, Kashgar, Weather by CustomWeather, © 2014

Note: Actual official high and low records may vary slightly from our data, if they occured in-between our weather recording intervals... More about our weather records

Advertising

Kashgar weather history for previous 24 hours

 ConditionsComfort  
Time TempWeatherWind HumidityBarometerVisibility
4:00 AM
Jul 24
86 °FClear.10 mph19%29.74 "Hg10 mi
3:00 AM86 °FClear.8 mph19%29.74 "Hg10 mi
2:00 AM86 °FClear.10 mph19%29.77 "Hg10 mi
1:00 AM86 °FClear.8 mph22%29.77 "Hg10 mi
12:00 AM88 °FClear.3 mph21%29.77 "Hg10 mi
11:00 PM
Jul 23
90 °FPassing clouds.1 mph20%29.77 "HgN/A
10:00 PM91 °FPassing clouds.6 mph17%29.74 "HgN/A
9:00 PM93 °FPassing clouds.3 mph17%29.74 "HgN/A
8:00 PM95 °FSunny.1 mph13%29.74 "Hg10 mi
7:00 PM97 °FSunny.8 mph14%29.77 "Hg10 mi
6:00 PM97 °FPassing clouds.8 mph12%29.77 "HgN/A
5:00 PM95 °FPassing clouds.8 mph14%29.80 "HgN/A
4:00 PM95 °FPassing clouds.10 mph16%29.80 "HgN/A
2:00 PM93 °FPassing clouds.8 mph20%29.86 "HgN/A
1:00 PM90 °FPassing clouds.8 mph27%29.89 "HgN/A
12:00 PM90 °FSunny.3 mph24%29.89 "Hg10 mi
11:00 AM88 °FSunny.8 mph21%29.89 "Hg10 mi
10:00 AM82 °FSunny.8 mph26%29.89 "Hg10 mi
9:00 AM79 °FSunny.8 mph30%29.89 "Hg10 mi
8:00 AM77 °FSunny.8 mph34%29.89 "Hg10 mi
7:00 AM77 °FClear.8 mph34%29.89 "Hg10 mi
Weather by CustomWeather, © 2014

See weather overviewHow to use our weather pages